TimeEST,TemperatureF,Dew PointF,Humidity,Sea Level PressureIn,VisibilityMPH,Wind Direction,Wind SpeedMPH,Gust SpeedMPH,PrecipitationIn,Events,Conditions,WindDirDegrees,DateUTC
12:46 AM,26.6,23.0,86,29.77,0.8,SW,6.9,-,0.02,Snow,Light Snow,230,2013-02-01 05:46:00
12:51 AM,26.1,23.0,88,29.88,0.8,WSW,5.8,-,0.02,Snow,Light Snow,250,2013-02-01 05:51:00
12:59 AM,26.6,23.0,86,29.77,1.0,WSW,4.6,-,0.01,Snow,Light Snow,250,2013-02-01 05:59:00
1:11 AM,26.6,24.8,93,29.76,0.8,West,5.8,-,0.01,Snow,Light Snow,260,2013-02-01 06:11:00
1:51 AM,26.1,24.1,92,29.86,0.5,WSW,5.8,-,0.06,Fog-Snow,Snow,250,2013-02-01 06:51:00
2:11 AM,26.6,24.8,93,29.75,1.0,WSW,10.4,19.6,0.01,Snow,Light Snow,240,2013-02-01 07:11:00
2:21 AM,26.6,24.8,93,29.75,1.2,WSW,13.8,-,0.02,Snow,Light Snow,250,2013-02-01 07:21:00
2:32 AM,26.6,23.0,86,29.78,0.5,WNW,20.7,40.3,0.02,Fog-Snow,Snow,290,2013-02-01 07:32:00
2:34 AM,26.6,23.0,86,29.78,0.2,WNW,20.7,40.3,0.02,Fog-Snow,Heavy Snow,300,2013-02-01 07:34:00
2:43 AM,24.8,21.2,86,29.79,0.5,WNW,17.3,27.6,0.02,Fog-Snow,Snow,300,2013-02-01 07:43:00
2:51 AM,24.1,21.0,88,29.93,0.5,NW,21.9,31.1,0.02,Fog-Snow,Snow,320,2013-02-01 07:51:00
3:27 AM,19.4,15.8,86,29.86,1.0,NW,17.3,36.8,0.00,Snow,Light Snow,310,2013-02-01 08:27:00
3:46 AM,19.4,15.8,86,29.88,1.5,WNW,15.0,25.3,0.00,Snow,Light Snow,290,2013-02-01 08:46:00
3:51 AM,19.0,15.1,85,30.01,1.2,WNW,18.4,23.0,0.00,Snow,Light Snow,290,2013-02-01 08:51:00
4:04 AM,17.6,12.2,79,29.89,0.8,WNW,23.0,36.8,0.00,Snow,Light Snow,300,2013-02-01 09:04:00
4:13 AM,17.6,12.2,79,29.90,1.0,WNW,19.6,29.9,0.00,Snow,Light Snow,300,2013-02-01 09:13:00
4:22 AM,17.6,12.2,79,29.91,2.0,NW,18.4,32.2,0.00,Snow,Light Snow,310,2013-02-01 09:22:00
4:51 AM,16.0,5.0,62,30.06,2.0,WNW,20.7,38.0,0.00,,Mostly Cloudy,300,2013-02-01 09:51:00
4:56 AM,15.8,5.0,62,29.93,3.0,WNW,21.9,38.0,0.00,,Mostly Cloudy,290,2013-02-01 09:56:00
5:08 AM,15.8,6.8,68,29.94,4.0,NW,17.3,26.5,0.00,Snow,Light Snow,310,2013-02-01 10:08:00
5:14 AM,15.8,8.6,73,29.94,1.5,NW,12.7,26.5,0.00,Snow,Light Snow,310,2013-02-01 10:14:00
5:33 AM,14.0,6.8,73,29.95,3.0,NW,20.7,28.8,0.00,Snow,Light Snow,320,2013-02-01 10:33:00
5:49 AM,14.0,6.8,73,29.97,2.5,WNW,25.3,31.1,0.00,Snow,Light Snow,300,2013-02-01 10:49:00
5:51 AM,14.0,6.1,71,30.10,2.5,NW,20.7,31.1,0.00,Snow,Light Snow,310,2013-02-01 10:51:00
5:59 AM,12.2,6.8,79,29.97,1.5,WNW,24.2,31.1,0.00,Snow,Light Snow,300,2013-02-01 10:59:00
6:11 AM,12.2,5.0,73,29.99,2.5,WNW,17.3,32.2,0.00,Snow,Light Snow,290,2013-02-01 11:11:00
6:16 AM,12.2,5.0,73,29.99,3.0,NW,18.4,28.8,0.00,Snow,Light Snow,320,2013-02-01 11:16:00
6:18 AM,12.2,5.0,73,29.99,2.5,NW,21.9,28.8,0.00,Snow,Light Snow,320,2013-02-01 11:18:00
6:30 AM,12.2,5.0,73,30.01,2.5,NW,18.4,29.9,0.00,Snow,Light Snow,310,2013-02-01 11:30:00
6:41 AM,12.2,3.2,67,30.01,4.0,WNW,17.3,28.8,0.00,Snow,Light Snow,300,2013-02-01 11:41:00
6:51 AM,12.0,3.9,70,30.17,5.0,WNW,16.1,24.2,0.00,Snow,Light Snow,300,2013-02-01 11:51:00
7:09 AM,12.2,5.0,73,30.04,1.8,NW,13.8,24.2,N/A,Snow,Light Snow,310,2013-02-01 12:09:00
7:18 AM,10.4,6.8,85,30.04,0.5,NW,13.8,25.3,0.00,Fog-Snow,Snow,310,2013-02-01 12:18:00
7:34 AM,10.4,3.2,73,30.05,1.8,NW,18.4,26.5,0.00,Snow,Light Snow,310,2013-02-01 12:34:00
7:42 AM,8.6,1.4,73,30.06,2.5,WNW,16.1,26.5,0.00,Snow,Light Snow,300,2013-02-01 12:42:00
7:51 AM,9.0,-0.0,67,30.22,4.0,NW,13.8,26.5,0.00,Snow,Blowing Snow,310,2013-02-01 12:51:00
8:07 AM,8.6,-0.4,67,30.08,7.0,NW,12.7,26.5,N/A,,Scattered Clouds,320,2013-02-01 13:07:00
8:37 AM,8.6,-0.4,67,30.10,9.0,NW,13.8,24.2,N/A,,Mostly Cloudy,310,2013-02-01 13:37:00
8:51 AM,8.1,-0.0,70,30.27,6.0,WNW,13.8,20.7,0.00,Snow,Light Snow,300,2013-02-01 13:51:00
9:51 AM,9.0,1.0,70,30.29,2.5,NNW,9.2,16.1,0.00,Snow,Light Snow,330,2013-02-01 14:51:00
10:04 AM,8.6,1.4,73,30.14,6.0,NNW,10.4,-,0.00,Snow,Light Snow,330,2013-02-01 15:04:00
10:51 AM,10.0,1.0,67,30.31,3.0,WNW,12.7,19.6,0.00,Snow,Light Snow,290,2013-02-01 15:51:00
11:11 AM,10.4,-0.4,62,30.17,10.0,West,12.7,20.7,0.00,,Mostly Cloudy,280,2013-02-01 16:11:00
11:51 AM,10.9,-0.0,61,30.33,10.0,WNW,11.5,-,0.00,,Mostly Cloudy,290,2013-02-01 16:51:00
12:09 PM,12.2,1.4,62,30.19,10.0,WNW,11.5,19.6,0.00,,Overcast,300,2013-02-01 17:09:00
12:51 PM,12.9,1.0,59,30.32,10.0,WNW,10.4,18.4,0.00,,Mostly Cloudy,290,2013-02-01 17:51:00
1:18 PM,14.0,1.4,57,30.18,10.0,West,13.8,20.7,N/A,,Overcast,260,2013-02-01 18:18:00
1:51 PM,15.1,1.0,54,30.32,10.0,West,11.5,21.9,N/A,,Mostly Cloudy,280,2013-02-01 18:51:00
2:51 PM,15.1,1.0,54,30.33,10.0,NW,9.2,-,N/A,,Partly Cloudy,320,2013-02-01 19:51:00
3:51 PM,16.0,1.0,52,30.34,10.0,NW,9.2,-,N/A,,Clear,310,2013-02-01 20:51:00
4:51 PM,15.1,1.0,54,30.37,10.0,West,8.1,-,N/A,,Clear,280,2013-02-01 21:51:00
5:51 PM,12.9,1.0,59,30.38,10.0,WNW,11.5,-,N/A,,Clear,290,2013-02-01 22:51:00
6:51 PM,12.0,1.0,61,30.40,10.0,WNW,4.6,-,N/A,,Clear,290,2013-02-01 23:51:00
7:51 PM,10.9,-0.0,61,30.43,10.0,West,3.5,-,N/A,,Clear,280,2013-02-02 00:51:00
8:51 PM,10.4,-0.4,62,30.24,10.0,West,5.8,-,N/A,,Clear,270,2013-02-02 01:51:00
9:51 PM,9.0,1.0,70,30.44,10.0,Calm,Calm,-,N/A,,Clear,0,2013-02-02 02:51:00
10:51 PM,8.1,1.9,76,30.43,10.0,Calm,Calm,-,N/A,,Clear,0,2013-02-02 03:51:00
11:51 PM,9.0,-0.0,67,30.42,10.0,WSW,4.6,-,N/A,,Clear,240,2013-02-02 04:51:00